Weather History for Cincinnati, OH

Change the Weather History Date:

Sunday, December 1, 2013

  Actual Average Record
Temperature  
Mean Temperature 40 °F -  
Max Temperature 53 °F 47 °F 69 °F (1970)
Min Temperature 26 °F 31 °F 4 °F (1958)
Degree Days  
Heating Degree Days 26    
Moisture  
Dew Point 33 °F    
Average Humidity 74    
Maximum Humidity 96    
Minimum Humidity 50    
Precipitation  
Precipitation 0.00 in - - ()
Sea Level Pressure  
Sea Level Pressure 30.09 in    
Wind  
Wind Speed 2 mph (SSW)    
Max Wind Speed 12 mph    
Max Gust Speed -    
Visibility 10 miles    
Events      
Averages and records for this station are not official NWS values.
T = Trace of Precipitation, MM = Missing Value Source: NWS Daily Summary

Daily Weather History Graph

Daily Weather History Graph

Search for Another Location

Airport:

Trip Planner

Search our weather history database for the weather conditions in past years. The results will help you decide how hot, cold, wet, or windy it might be!

Date:

Astronomy

Dec. 01, 2013 Rise Set
Actual Time 7:38 AM EST 5:15 PM EST
Civil Twilight 7:08 AM EST 5:44 PM EST
Nautical Twilight 6:35 AM EST 6:18 PM EST
Astronomical Twilight 6:03 AM EST 6:50 PM EST
Moon 5:55 AM EST (12/1) 4:24 PM EST (12/1)
Length of Visible Light 10h 36m
Length of Day
9h 37m
Waning Crescent, 2% of the Moon is Illuminated
Dec 1
Waning Crescent
Dec 2
New
Dec 9
First Quarter
Dec 17
Full
Dec 25
Last Quarter

Hourly Weather History & Observations

Time (EST) Temp. Windchill Dew Point Humidity Pressure Visibility Wind Dir Wind Speed Gust Speed Precip Events Conditions
12:53 AM 26.1 °F - 25.0 °F 96% 30.21 in 9.0 mi Calm Calm - N/A   Clear
1:53 AM 26.1 °F - 25.0 °F 96% 30.20 in 7.0 mi Calm Calm - N/A   Scattered Clouds
2:53 AM 26.1 °F - 24.1 °F 92% 30.19 in 9.0 mi Calm Calm - N/A   Clear
3:53 AM 27.0 °F - 26.1 °F 96% 30.18 in 8.0 mi Calm Calm - N/A   Mostly Cloudy
4:53 AM 28.9 °F - 28.0 °F 96% 30.17 in 9.0 mi Calm Calm - N/A   Overcast
5:53 AM 30.9 °F - 28.9 °F 92% 30.16 in 10.0 mi Calm Calm - N/A   Overcast
6:53 AM 32.0 °F - 30.0 °F 92% 30.16 in 10.0 mi Calm Calm - N/A   Overcast
7:53 AM 33.1 °F - 30.9 °F 92% 30.15 in 10.0 mi Calm Calm - N/A   Overcast
8:53 AM 36.0 °F - 34.0 °F 93% 30.16 in 10.0 mi Calm Calm - N/A   Overcast
9:53 AM 41.0 °F - 35.1 °F 79% 30.16 in 10.0 mi Calm Calm - N/A   Overcast
10:53 AM 46.9 °F - 32.0 °F 56% 30.14 in 10.0 mi SSW 9.2 mph - N/A   Overcast
11:53 AM 50.0 °F - 33.1 °F 52% 30.11 in 10.0 mi SW 6.9 mph - N/A   Overcast
12:53 PM 52.0 °F - 34.0 °F 50% 30.08 in 10.0 mi SSW 9.2 mph - N/A   Overcast
1:53 PM 52.0 °F - 35.1 °F 53% 30.06 in 10.0 mi SSW 11.5 mph - N/A   Overcast
2:53 PM 52.0 °F - 35.1 °F 53% 30.04 in 10.0 mi SW 8.1 mph - N/A   Overcast
3:53 PM 53.1 °F - 36.0 °F 52% 30.03 in 10.0 mi SW 8.1 mph - N/A   Overcast
4:53 PM 50.0 °F - 37.0 °F 61% 30.02 in 10.0 mi SSW 6.9 mph - N/A   Overcast
5:53 PM 46.9 °F - 36.0 °F 66% 30.02 in 10.0 mi South 5.8 mph - N/A   Overcast
6:53 PM 46.0 °F 43.1 °F 37.0 °F 71% 30.02 in 10.0 mi South 5.8 mph - N/A   Overcast
7:53 PM 46.0 °F 43.9 °F 36.0 °F 68% 30.02 in 10.0 mi SSW 4.6 mph - N/A   Overcast
8:53 PM 45.0 °F - 37.0 °F 74% 30.01 in 10.0 mi Calm Calm - N/A   Overcast
9:53 PM 46.0 °F 44.8 °F 36.0 °F 68% 30.01 in 10.0 mi SSW 3.5 mph - N/A   Overcast
10:53 PM 45.0 °F - 35.1 °F 68% 29.99 in 10.0 mi Calm Calm - N/A   Overcast
11:53 PM 46.0 °F - 35.1 °F 66% 29.99 in 10.0 mi Calm Calm - N/A   Overcast